This is the latest recevied weather packets stored in our database for station/object WX5KDM. If no packets are shown the sender has not sent any weather packets the latest 10 day(s).
| Time | Temp. | Humidity | Pressure | Rain* | Wind** | Luminosity | Snow |
|---|---|---|---|---|---|---|---|
| 1777837049 | 22.78° C | 36% | 1020.4 hPa | 0 mm | - | - | - |
| 1777836745 | 22.22° C | 38% | 1020.8 hPa | 0 mm | - | - | - |
| 1777836441 | 22.78° C | 39% | 1020.6 hPa | 0 mm | - | - | - |
| 1777836136 | 21.67° C | 40% | 1020.8 hPa | 0 mm | - | - | - |
| 1777835833 | 21.67° C | 38% | 1020.8 hPa | 0 mm | - | - | - |
| 1777835531 | 22.22° C | 38% | 1020.9 hPa | 0 mm | - | - | - |
| 1777835227 | 21.67° C | 40% | 1021 hPa | 0 mm | - | - | - |
| 1777834924 | 21.11° C | 37% | 1021.2 hPa | 0 mm | - | - | - |
| 1777834621 | 21.67° C | 41% | 1021.3 hPa | 0 mm | - | - | - |
| 1777834316 | 21.67° C | 40% | 1021.3 hPa | 0 mm | - | - | - |
| 1777834011 | 21.67° C | 39% | 1021.4 hPa | 0 mm | - | - | - |
| 1777833708 | 21.11° C | 36% | 1021.4 hPa | 0 mm | - | - | - |
| 1777833404 | 21.11° C | 40% | 1021.6 hPa | 0 mm | - | - | - |
| 1777833102 | 21.67° C | 39% | 1021.6 hPa | 0 mm | - | - | - |
| 1777832800 | 21.67° C | 40% | 1021.8 hPa | 0 mm | - | - | - |
| 1777832498 | 21.11° C | 38% | 1021.8 hPa | 0 mm | - | - | - |
| 1777832194 | 21.11° C | 40% | 1021.7 hPa | 0 mm | - | - | - |
| 1777831891 | 21.67° C | 44% | 1021.9 hPa | 0 mm | - | - | - |
| 1777831588 | 21.11° C | 39% | 1022.1 hPa | 0 mm | - | - | - |
| 1777831286 | 20.56° C | 42% | 1021.8 hPa | 0 mm | - | - | - |
| 1777830983 | 20.56° C | 40% | 1022.2 hPa | 0 mm | - | - | - |
| 1777830680 | 20° C | 41% | 1022.1 hPa | 0 mm | - | - | - |
| 1777830376 | 20.56° C | 41% | 1022.4 hPa | 0 mm | - | - | - |
| 1777830074 | 20° C | 41% | 1022.4 hPa | 0 mm | - | - | - |
| 1777829768 | 20° C | 43% | 1022.5 hPa | 0 mm | - | - | - |
* Rain latest hour (hover to see other rain measurements)
** Current wind speed in m/s (hover to see current wind gust speed)